Regional Weather Roundup
Issued by NWS

Home | Current Version | Previous Version | Graphics & Text | Print | Product List | Glossary On
Versions: 1 2 3 4 5 6 7 8 9 10 11 12 13 14 15 16 17 18 19 20 21 22 23 24 25 26 27 28 29 30 31 32 33 34 35 36 37 38 39 40 41 42 43 44 45 46 47 48 49 50
552
ASUS45 KABQ 080810
RWRNM
NEW MEXICO REGIONAL WEATHER ROUNDUP
NATIONAL WEATHER SERVICE ALBUQUERQUE NM
100 AM MST MON FEB 08 2016

NOTE: "FAIR" MEANS FEW OR NO CLOUDS BELOW 12,000 FEET AGL WITH NO
       SIGNIFICANT WEATHER OR OBSTRUCTIONS TO VISION.

      THIS PRODUCT IS RELEASED AS TWO VERSIONS.  ONE VERSION NEAR
      THE TOP OF THE HOUR CONTAINING PRELIMINARY DATA FROM ALBUQUERQUE
      AND OTHER STATIONS.  A FINAL VERSION WITH ADDITIONAL DATA IS
      ISSUED ABOUT 10 MINUTES AFTER THE HOUR.

NMZ501-503-504-510>518-080900-
NORTHWEST PLATEAU/NORTHCENTRAL MOUNTAINS

CITY           SKY/WX    TMP DP  RH WIND       PRES   REMARKS
FARMINGTON     CLOUDY    24  18  77 E5        30.42S WCI  18
LOS ALAMOS     CLOUDY    37  14  39 NW3       30.41S
SANTA FE       CLOUDY    22  17  81 N7        30.39F WCI  13
TAOS           CLOUDY    19  10  68 CALM      30.40F
ANGEL FIRE     FAIR       5   1  85 W3        30.39F

$$
NMZ402-403-502-505>509-080900-
WESTCENTRAL MOUNTAINS/SOUTHWEST MOUNTAINS

CITY           SKY/WX    TMP DP  RH WIND       PRES   REMARKS
GALLUP         CLEAR     18  14  84 CALM      30.45S
GRANTS         CLEAR     18  13  80 W5        30.46S WCI  11
SILVER CITY      N/A     27  18  69 N9        30.36R WCI  17

$$
NMZ407-409-411-412-080900-
SOUTHERN DESERTS

CITY           SKY/WX    TMP DP  RH WIND       PRES   REMARKS
LORDSBURG      FAIR      30  18  59 E3        30.31S
DEMING         PTCLDY    34  15  46 N3        30.33R
LAS CRUCES     PTCLDY    42  16  35 N7        30.32S
HOLLOMAN AFB   CLOUDY    30  11  44 NE6       30.31S WCI  24
ALAMOGORDO     CLOUDY    37  14  38 E5        30.32S WCI  34
T OR C         CLEAR     41  16  36 N6        30.36S

$$
NMZ519>523-080900-
CENTRAL VALLEYS/CENTRAL HIGHLANDS

CITY           SKY/WX    TMP DP  RH WIND       PRES   REMARKS
ALBUQUERQUE    CLOUDY    32  18  56 CALM      30.41S
DOUBLE EAGLE   CLOUDY    34  18  52 N8        30.41F WCI  27
MORIARTY ARPT  FAIR      28  20  71 E5        30.42R WCI  23
CLINES CORNERS CLOUDY    24  17  74 E9        30.39R WCI  14
BELEN          FAIR      29  17  59 CALM      30.40F
SOCORRO        FAIR      36  17  46 N10G16    30.38R WCI  28

$$
NMZ524>526-539-540-080900-
SOUTHCENTRAL MOUNTAINS

CITY           SKY/WX    TMP DP  RH WIND       PRES   REMARKS
RUIDOSO          N/A     32  14  47 S8        30.42S WCI  25

$$
NMZ527>531-080900-
NORTHEAST HIGHLANDS/NORTHEAST PLAINS

CITY           SKY/WX    TMP DP  RH WIND       PRES   REMARKS
LAS VEGAS      CLOUDY    23  17  78 S15       30.38R WCI  10
RATON          CLOUDY    17  14  88 S6        30.38S WCI   9
CLAYTON        CLOUDY    24  14  65 NW10      30.40F WCI  14

$$
NMZ532>537-080900-
EASTCENTRAL PLAINS

CITY           SKY/WX    TMP DP  RH WIND       PRES   REMARKS
TUCUMCARI      CLOUDY    20  13  74 N5        30.45S WCI  13
CANNON AFB     CLOUDY    24  14  66 NE7       30.43S WCI  16
CLOVIS AIRPORT CLOUDY    21  10  63 N8        30.44S WCI  12

$$
NMZ028-029-538-080900-
SOUTHEAST PLAINS

CITY           SKY/WX    TMP DP  RH WIND       PRES   REMARKS
ROSWELL        CLOUDY    37  18  46 NE14      30.43R WCI  28
ARTESIA        CLOUDY    37  21  52 N12       30.41R WCI  30
CARLSBAD       CLOUDY    41  22  46 E12       30.38R
HOBBS          CLOUDY    36  18  48 NE13      30.41R WCI  27


$$




USA.gov is the U.S. government's official web portal to all federal, state and local government web resources and services.